TimeCST,TemperatureF,Dew PointF,Humidity,Sea Level PressureIn,VisibilityMPH,Wind Direction,Wind SpeedMPH,Gust SpeedMPH,PrecipitationIn,Events,Conditions,WindDirDegrees,DateUTC
12:53 AM,12.9,3.9,67,30.22,10.0,WNW,8.1,-,N/A,,Overcast,290,2013-02-15 06:53:00
1:53 AM,12.0,1.9,64,30.22,10.0,WNW,9.2,-,N/A,,Mostly Cloudy,290,2013-02-15 07:53:00
2:53 AM,10.9,1.0,64,30.24,10.0,WNW,11.5,-,N/A,,Mostly Cloudy,300,2013-02-15 08:53:00
3:53 AM,9.0,1.0,70,30.25,10.0,WNW,8.1,-,N/A,,Mostly Cloudy,290,2013-02-15 09:53:00
4:53 AM,9.0,1.9,73,30.26,10.0,WNW,8.1,-,N/A,,Mostly Cloudy,300,2013-02-15 10:53:00
5:53 AM,7.0,1.0,77,30.28,10.0,NW,9.2,-,N/A,,Partly Cloudy,310,2013-02-15 11:53:00
6:53 AM,6.1,1.0,80,30.30,10.0,NW,6.9,-,N/A,,Scattered Clouds,310,2013-02-15 12:53:00
7:53 AM,7.0,1.0,77,30.32,10.0,NW,8.1,-,N/A,,Scattered Clouds,310,2013-02-15 13:53:00
8:53 AM,9.0,1.0,70,30.34,10.0,NW,8.1,-,N/A,,Partly Cloudy,320,2013-02-15 14:53:00
9:53 AM,10.9,1.9,67,30.35,10.0,NW,11.5,-,N/A,,Partly Cloudy,320,2013-02-15 15:53:00
10:53 AM,12.9,3.0,65,30.34,10.0,NW,17.3,-,N/A,,Scattered Clouds,320,2013-02-15 16:53:00
11:53 AM,15.1,3.0,59,30.35,10.0,NNW,15.0,20.7,N/A,,Partly Cloudy,330,2013-02-15 17:53:00
12:53 PM,16.0,1.9,54,30.33,10.0,NNW,8.1,-,N/A,,Partly Cloudy,330,2013-02-15 18:53:00
1:53 PM,17.1,1.9,52,30.32,10.0,NW,13.8,18.4,N/A,,Clear,320,2013-02-15 19:53:00
2:53 PM,17.1,3.0,54,30.32,10.0,WNW,12.7,-,N/A,,Clear,300,2013-02-15 20:53:00
3:53 PM,17.1,1.9,52,30.33,10.0,WNW,13.8,-,N/A,,Clear,300,2013-02-15 21:53:00
4:53 PM,17.1,1.9,52,30.34,10.0,WNW,12.7,-,N/A,,Clear,300,2013-02-15 22:53:00
5:53 PM,15.1,1.0,54,30.34,10.0,WNW,9.2,-,N/A,,Clear,300,2013-02-15 23:53:00
6:53 PM,14.0,3.0,62,30.34,10.0,West,10.4,-,N/A,,Clear,270,2013-02-16 00:53:00
7:53 PM,12.9,1.9,62,30.33,10.0,West,8.1,-,N/A,,Clear,270,2013-02-16 01:53:00
8:53 PM,12.0,1.9,64,30.33,10.0,West,6.9,-,N/A,,Clear,280,2013-02-16 02:53:00
9:53 PM,9.0,1.0,70,30.32,10.0,WNW,9.2,-,N/A,,Clear,290,2013-02-16 03:53:00
10:53 PM,8.1,-0.0,70,30.32,10.0,West,6.9,-,N/A,,Clear,280,2013-02-16 04:53:00
11:53 PM,6.1,-0.0,76,30.31,10.0,WNW,5.8,-,N/A,,Clear,290,2013-02-16 05:53:00